Powrót do katalogu

FENGYUN 1C DEB

AktywnySSO
NORAD 30662·DEBRIS·🇨🇳 China

Wystrzelony May 10, 1999 z Taiyuan Satellite Launch Center

Loading…

Następne Przeloty (najbliższe 24 godziny)

TLE

ŚwieżeSource: Space-Track

Epoka: Sep 14, 2026, 03:18 UTC

1 30662U 99025APU 26257.13794336  .00001775  00000-0  79166-3 0  9992
2 30662  99.0334 325.7960 0033536 200.0375 190.2736 14.23800912  5481

Śledź FENGYUN 1C DEB w czasie rzeczywistym z AllMySat

Download on the App Store